Regional Weather Roundup
Issued by NWS Columbia, SC

Home | Current Version | Previous Version | Text Only | Print | Product List | Glossary On
Versions: 1 2 3 4 5 6 7 8 9 10 11 12 13 14 15 16 17 18 19 20 21 22 23 24 25 26 27 28 29 30 31 32 33 34 35 36 37 38 39 40 41 42 43 44 45 46 47 48 49 50
000
ASUS42 KCAE 271810
RWRCAE
REGIONAL WEATHER ROUNDUP
NATIONAL WEATHER SERVICE COLUMBIA SC
200 PM EDT WED MAY 27 2015

NOTE: "FAIR" INDICATES FEW OR NO CLOUDS BELOW 12,000 FEET WITH NO
SIGNIFICANT WEATHER AND/OR OBSTRUCTIONS TO VISIBILITY.

NOT ALL STATIONS ARE QUALITY CONTROLLED BY THE NATIONAL
WEATHER SERVICE. USE DATA WITH CAUTION...ESPECIALLY
DEWPOINT OBSERVATIONS.

SCZ001>056-GAZ040-063>065-077-271900-
...UPSTATE SOUTH CAROLINA...

CITY           SKY/WX    TMP DP  RH WIND       PRES   REMARKS
ANDERSON       CLOUDY    77  66  68 S5        30.26F
6HR MIN TEMP:  67; 6HR MAX TEMP:  77;

LIBERTY        CLOUDY    77  66  68 SW7       30.25F
SPARTANBURG    CLOUDY    77  66  69 CALM      30.25F
CLEMSON        CLOUDY    76  65  68 S5        30.27F
6HR MIN TEMP:  68; 6HR MAX TEMP:  78;

GREENVILLE     CLOUDY    77  65  66 SW6       30.26F
6HR MIN TEMP:  66; 6HR MAX TEMP:  77;

GREENWOOD      PTSUNNY   80  66  62 SW5       30.25F
6HR MIN TEMP:  67; 6HR MAX TEMP:  81; 6HR PCP: TRACE;

GREER          CLOUDY    76  66  71 SW3       30.25S
6HR MIN TEMP:  66; 6HR MAX TEMP:  76;

ROCK HILL      PTSUNNY   78  67  68 S5        30.25F
6HR MIN TEMP:  66; 6HR MAX TEMP:  79; 6HR PCP: TRACE;

CHESTER        MOCLDY    81  64  57 S6        30.25F
LAURENS        MOCLDY    79  72  78 W3        30.24F


...CENTRAL SOUTH CAROLINA...

CITY           SKY/WX    TMP DP  RH WIND       PRES   REMARKS
COLUMBIA APT   PTSUNNY   85  66  53 SW8       30.21F
6HR MIN TEMP:  71; 6HR MAX TEMP:  86; 6HR PCP: TRACE;

COLUMBIA OWENS MOSUNNY   85  65  51 SW8       30.23F
6HR MIN TEMP:  72; 6HR MAX TEMP:  85; 6HR PCP:  0.02;

DARLINGTON     PTSUNNY   77  66  69 S7        30.26S
FLORENCE       PTSUNNY   81  69  67 W5        30.23F
6HR MIN TEMP:  74; 6HR MAX TEMP:  83; 6HR PCP:  0.18;

MCENTIRE ANGB  PTSUNNY   84  69  60 VRB5      30.23F
6HR MIN TEMP:  69; 6HR MAX TEMP:  84;

ORANGEBURG     PTSUNNY   82  67  60 SW9       30.23F
6HR MIN TEMP:  71; 6HR MAX TEMP:  83; 6HR PCP: TRACE;

SUMTER SHAW    PTSUNNY   80  69  68 SE5       30.23F
6HR MIN TEMP:  72; 6HR MAX TEMP:  83; 6HR PCP:  0.31;

AIKEN          FAIR      82  63  51 SW9       30.27F
BARNWELL       MOCLDY    88  70  55 SW8       30.23F
MANNING        FAIR      82  55  39 SW6       30.23F
CAMDEN         CLOUDY    72  68  88 VRB5      30.25R
LANCASTER      MOCLDY    81  72  74 SW6       30.24F
WINNSBORO      PTCLDY    82  68  61 SW6       30.23F


...EASTERN AND COASTAL SOUTH CAROLINA...

CITY           SKY/WX    TMP DP  RH WIND       PRES   REMARKS
MYRTLE BEACH   MOSUNNY   82  66  57 S14       30.28S
N MYRTLE BCH   SUNNY     81  69  67 S12       30.26F
6HR MIN TEMP:  77; 6HR MAX TEMP:  82;

CONWAY         FAIR      82  70  65 SE9       30.24F
MARION         FAIR      86  68  54 NW8       30.23F
HARTSVILLE     CLOUDY    72  70  94 S5        30.25S
FLORENCE       PTSUNNY   81  69  67 W5        30.23F
6HR MIN TEMP:  74; 6HR MAX TEMP:  83; 6HR PCP:  0.18;

DARLINGTON     PTSUNNY   77  66  69 S7        30.26S
CHARLESTON APT MOSUNNY   85  65  51 VRB7G16   30.24F
6HR MIN TEMP:  76; 6HR MAX TEMP:  86;

MOUNT PLEASANT LGT RAIN  84  66  54 S9        30.25F
WALTERBORO     PTCLDY    86  64  48 S12       30.23F
BEAUFORT       PTSUNNY   88  69  53 SE6       30.24F
6HR MIN TEMP:  78; 6HR MAX TEMP:  89;



...EASTERN GEORGIA...

CITY           SKY/WX    TMP DP  RH WIND       PRES   REMARKS
AUGUSTA BUSH F MOSUNNY   84  68  58 VRB3      30.22F
6HR MIN TEMP:  70; 6HR MAX TEMP:  84;

AUGUSTA DANIEL SUNNY     83  66  56 VRB3      30.24F
6HR MIN TEMP:  72; 6HR MAX TEMP:  83;

THOMSON        MOSUNNY   86  70  58 E5        30.27F
6HR MIN TEMP:  71; 6HR MAX TEMP:  88;

WASHINGTON     FAIR      82  72  69 CALM      30.25F
CLAXTON        CLOUDY    81  72  74 NW5       30.22F
SYLVANIA       CLOUDY    85  71  62 S3        30.23F
6HR MIN TEMP:  71; 6HR MAX TEMP:  89;

STATESBORO     MOSUNNY   87  73  62 SE6       30.22F
6HR MIN TEMP:  70; 6HR MAX TEMP:  87;

SAVANNAH       PTSUNNY   85  65  51 SE10      30.23F
6HR MIN TEMP:  75; 6HR MAX TEMP:  85;



...SOUTHERN NORTH CAROLINA...

CITY           SKY/WX    TMP DP  RH WIND       PRES   REMARKS
CHARLOTTE      PTSUNNY   80  65  59 S8        30.25F
6HR MIN TEMP:  67; 6HR MAX TEMP:  80; 6HR PCP: TRACE;

MONROE         MOSUNNY   80  67  64 SW13      30.24S
6HR MIN TEMP:  67; 6HR MAX TEMP:  81; 6HR PCP:  0.01;

WADESBORO      MOCLDY    83  65  54 SW6       30.23S
6HR MIN TEMP:  70; 6HR MAX TEMP:  84;

ROCKINGHAM     MOCLDY    84  66  54 S7        30.23S
6HR MIN TEMP:  70; 6HR MAX TEMP:  85;

RUTHERFORDTON  CLOUDY    77  65  66 SW6       30.26F
6HR MIN TEMP:  64; 6HR MAX TEMP:  77;

ASHEVILLE      SUNNY     75  62  64 S9        30.28S
6HR MIN TEMP:  60; 6HR MAX TEMP:  76;


$$


USA.gov is the U.S. government's official web portal to all federal, state and local government web resources and services.